Location: Peebles
(55.6412°N, 3.1714°W)
Time: 14:05:06
(UTC+01:00)

deb Agena D - Pass Details

Date: 22 September 2024
Orbit: 793 x 976 km, 99.8° (Epoch: 03 October)

Event Time Altitude Azimuth Distance (km) Brightness Sun altitude
Rises 03:55:23 0° 17° (NNE) 3,457 10.3 -24.4°
Reaches altitude 10° 03:57:43 10° 17° (NNE) 2,541 9.5 -24.2°
Maximum altitude 04:03:23 80° 291° (WNW) 928 6.2 -23.6°
Enters shadow 04:04:56 51° 215° (SW) 1,139 6.4 -23.4°
